period_start,C,m1,H,J0,J1,J2,J3,J4,J5,JA,JB,JC,JD,JJ,JK,JN,#
2014-01-25 00:00:57,0.19,2.06,0.00,19.19,25.07,28.45,6.10,30.50,1012.72,2048.01,2777.22,2771.04,3002.08,350.30,326.90,15.02,0000 0000 0000 0000 000000
2014-01-25 00:01:57,0.08,2.06,0.00,19.19,25.07,28.39,6.07,30.38,1012.72,2048.01,2777.07,2770.96,3002.03,350.51,327.55,15.03,0000 0000 0000 0000 000000
2014-01-25 00:02:57,0.05,2.06,0.00,19.19,25.07,28.40,6.24,30.50,1012.71,2048.00,2776.73,2770.61,3001.85,351.36,327.78,15.03,0000 0000 0000 0000 000000
2014-01-25 00:03:57,0.23,2.06,0.00,19.19,25.07,28.45,6.08,30.38,1012.72,2048.00,2776.28,2770.24,3001.43,350.01,326.93,15.04,0000 0000 0000 0000 000000
2014-01-25 00:04:58,0.23,2.06,0.00,19.20,25.07,28.46,6.24,30.38,1012.73,2048.01,2776.10,2770.09,3001.18,350.63,327.72,15.05,0000 0000 0000 0000 000000
2014-01-25 00:05:58,0.10,2.06,0.00,19.20,25.07,28.44,6.03,30.29,1012.72,2048.03,2776.01,2770.03,3001.06,350.32,327.17,15.05,0000 0000 0000 0000 000000
2014-01-25 00:06:58,0.05,2.06,0.00,19.19,25.07,28.47,6.18,30.29,1012.72,2048.04,2775.62,2769.99,3001.00,350.83,327.57,15.06,0000 0000 0000 0000 000000
2014-01-25 00:07:58,0.11,2.06,0.00,19.17,25.07,28.45,6.08,30.38,1012.73,2048.03,2775.25,2769.78,3000.85,349.34,326.45,15.06,0000 0000 0000 0000 000000
2014-01-25 00:08:59,0.15,2.07,0.00,19.18,25.07,28.47,6.13,30.50,1012.73,2048.03,2775.07,2769.34,3000.39,350.66,327.09,15.07,0000 0000 0000 0000 000000
2014-01-25 00:09:59,0.23,2.07,0.00,19.19,25.07,28.47,6.11,30.50,1012.71,2048.02,2774.74,2769.12,3000.14,350.03,327.10,15.07,0000 0000 0000 0000 000000
2014-01-25 00:10:59,0.14,2.07,0.00,19.19,25.07,28.50,6.23,30.58,1012.71,2048.02,2774.32,2769.04,3000.04,350.90,327.93,15.08,0000 0000 0000 0000 000000
2014-01-25 00:11:59,0.10,2.07,0.00,19.20,25.07,28.49,6.24,30.71,1012.71,2048.01,2774.11,2768.97,2999.93,350.71,327.62,15.09,0000 0000 0000 0000 000000
2014-01-25 00:12:59,0.06,2.07,0.00,19.19,25.07,28.51,6.11,30.46,1012.71,2048.01,2773.94,2768.55,2999.54,350.02,327.25,15.09,0000 0000 0000 0000 000000
2014-01-25 00:14:00,0.26,2.07,0.00,19.19,25.07,28.52,6.12,30.33,1012.71,2048.02,2773.49,2768.21,2999.20,350.61,327.77,15.10,0000 0000 0000 0000 000000
2014-01-25 00:15:00,0.21,2.07,0.00,19.20,25.07,28.52,6.13,30.42,1012.71,2048.02,2773.18,2768.08,2999.07,350.18,326.50,15.10,0000 0000 0000 0000 000000
2014-01-25 00:16:00,0.08,2.07,0.00,19.19,25.07,28.49,6.06,30.54,1012.71,2048.00,2773.05,2768.02,2998.93,350.18,327.30,15.11,0000 0000 0000 0000 000000
2014-01-25 00:17:00,0.04,2.07,0.00,19.19,25.07,28.50,6.09,30.42,1012.71,2048.01,2772.81,2767.90,2998.52,350.55,327.44,15.12,0000 0000 0000 0000 000000
2014-01-25 00:18:00,0.14,2.07,0.00,19.19,25.07,28.49,6.09,30.63,1012.71,2048.02,2772.42,2767.45,2998.21,349.70,326.65,15.12,0000 0000 0000 0000 000000
2014-01-25 00:19:00,0.28,2.07,0.00,19.19,25.07,28.45,6.16,30.75,1012.71,2048.01,2772.16,2767.18,2998.07,349.87,326.80,15.13,0000 0000 0000 0000 000000
2014-01-25 00:20:01,0.12,2.08,0.00,19.19,25.08,28.44,6.13,30.42,1012.71,2048.00,2772.01,2767.06,2997.93,349.52,326.48,15.13,0000 0000 0000 0000 000000
2014-01-25 00:21:01,0.06,2.08,0.00,19.19,25.08,28.49,6.08,30.63,1012.71,2048.00,2771.58,2767.00,2997.66,349.20,326.18,15.14,0000 0000 0000 0000 000000
2014-01-25 00:22:01,0.15,2.08,0.00,19.19,25.08,28.48,6.10,30.46,1012.71,2048.00,2771.22,2766.73,2997.31,350.13,327.05,15.15,0000 0000 0000 0000 000000
2014-01-25 00:23:01,0.19,2.08,0.00,19.20,25.08,28.47,6.07,30.42,1012.72,2048.01,2771.08,2766.35,2997.10,350.21,327.11,15.15,0000 0000 0000 0000 000000
2014-01-25 00:24:02,0.16,2.08,0.00,19.19,25.08,28.48,6.13,30.33,1012.71,2048.02,2770.97,2766.13,2997.01,349.56,326.93,15.16,0000 0000 0000 0000 000000
2014-01-25 00:25:02,0.11,2.08,0.00,19.19,25.09,28.49,6.11,30.63,1012.71,2048.01,2770.51,2766.04,2996.71,349.54,326.71,15.16,0000 0000 0000 0000 000000
2014-01-25 00:26:02,0.14,2.08,0.00,19.19,25.09,28.39,6.08,30.21,1012.71,2048.00,2770.18,2765.99,2996.29,350.02,327.13,15.17,0000 0000 0000 0000 000000
2014-01-25 00:27:02,0.11,2.08,0.00,19.19,25.09,28.40,6.11,30.58,1012.71,2048.00,2770.02,2765.74,2996.10,350.29,327.19,15.17,0000 0000 0000 0000 000000
2014-01-25 00:28:02,0.12,2.08,0.00,19.19,25.09,28.46,6.22,30.63,1012.71,2048.00,2769.63,2765.32,2996.04,349.82,326.76,15.18,0000 0000 0000 0000 000000
2014-01-25 00:29:03,0.22,2.08,0.00,19.20,25.09,28.47,6.18,30.33,1012.71,2048.00,2769.26,2765.11,2995.92,351.41,328.25,15.19,0000 0000 0000 0000 000000
2014-01-25 00:30:03,0.12,2.08,0.00,19.20,25.09,28.46,6.02,30.58,1012.71,2048.00,2769.09,2765.04,2995.52,350.17,327.24,15.19,0000 0000 0000 0000 000000
2014-01-25 00:31:03,0.12,2.08,0.00,19.19,25.10,28.47,6.18,30.33,1012.72,2048.01,2768.93,2764.92,2995.19,350.66,327.54,15.20,0000 0000 0000 0000 000000
2014-01-25 00:32:03,0.11,2.09,0.00,19.19,25.10,28.49,6.25,30.71,1012.71,2048.00,2768.45,2764.53,2995.07,350.91,327.77,15.20,0000 0000 0000 0000 000000
2014-01-25 00:33:04,0.22,2.09,0.00,19.19,25.09,28.50,6.05,30.54,1012.72,2048.00,2768.16,2764.21,2994.85,349.59,326.53,15.21,0000 0000 0000 0000 000000
2014-01-25 00:34:04,0.16,2.09,0.00,19.21,25.10,28.46,6.01,30.38,1012.71,2048.00,2768.03,2764.07,2994.40,349.24,326.19,15.22,0000 0000 0000 0000 000000
2014-01-25 00:35:04,0.13,2.09,0.00,19.21,25.10,28.44,6.13,30.46,1012.72,2048.00,2767.77,2764.03,2994.14,351.06,327.90,15.22,0000 0000 0000 0000 000000
2014-01-25 00:36:04,0.10,2.09,0.00,19.22,25.10,28.48,6.13,30.21,1012.72,2048.00,2767.31,2763.83,2994.04,350.65,327.51,15.23,0000 0000 0000 0000 000000
2014-01-25 00:37:04,0.15,2.09,0.00,19.22,25.10,28.50,6.08,30.63,1012.71,2048.00,2767.11,2763.37,2993.93,350.22,326.70,15.23,0000 0000 0000 0000 000000
2014-01-25 00:38:05,0.18,2.09,0.00,19.22,25.10,28.48,6.22,30.54,1012.71,2048.00,2766.99,2763.13,2993.53,350.85,327.10,15.24,0000 0000 0000 0000 000000
2014-01-25 00:39:05,0.15,2.09,0.00,19.22,25.10,28.48,6.02,30.63,1012.71,2048.00,2766.53,2763.04,2993.21,350.41,327.28,15.24,0000 0000 0000 0000 000000
2014-01-25 00:40:05,0.15,2.09,0.00,19.22,25.10,28.49,6.00,30.63,1012.71,2048.00,2766.20,2762.97,2993.07,349.39,326.32,15.25,0000 0000 0000 0000 000000
2014-01-25 00:41:05,0.09,2.09,0.00,19.22,25.10,28.50,6.02,30.54,1012.71,2048.00,2766.07,2762.82,2993.01,350.62,327.47,15.26,0000 0000 0000 0000 000000
2014-01-25 00:42:05,0.09,2.09,0.00,19.22,25.10,28.51,6.02,30.46,1012.71,2048.00,2765.90,2762.45,2992.79,349.63,326.55,15.26,0000 0000 0000 0000 000000
2014-01-25 00:43:06,0.17,2.09,0.00,19.22,25.10,28.48,6.13,30.71,1012.71,2047.99,2765.40,2762.17,2992.33,350.84,327.68,15.27,0000 0000 0000 0000 000000
2014-01-25 00:44:06,0.23,2.10,0.00,19.22,25.10,28.53,6.17,30.42,1012.71,2047.99,2765.14,2762.06,2992.12,349.83,326.74,15.27,0000 0000 0000 0000 000000
2014-01-25 00:45:06,0.09,2.10,0.00,19.22,25.10,28.56,6.01,30.54,1012.71,2047.99,2765.04,2762.00,2992.03,349.09,326.05,15.28,0000 0000 0000 0000 000000
2014-01-25 00:46:06,0.07,2.10,0.00,19.22,25.10,28.54,5.99,30.71,1012.71,2047.98,2764.66,2761.69,2991.84,349.25,326.19,15.29,0000 0000 0000 0000 000000
2014-01-25 00:47:06,0.20,2.10,0.00,19.23,25.10,28.55,5.91,30.54,1012.68,2047.97,2764.25,2761.28,2991.39,349.17,325.94,15.29,0000 0000 0000 0000 000000
2014-01-25 00:48:07,0.23,2.10,0.00,19.22,25.10,28.54,6.26,30.63,1012.70,2047.98,2764.08,2761.10,2991.14,350.57,327.16,15.30,0000 0000 0000 0000 000000
2014-01-25 00:49:07,0.09,2.10,0.00,19.23,25.10,28.51,6.16,30.67,1012.69,2047.99,2763.93,2761.03,2991.04,350.30,327.10,15.30,0000 0000 0000 0000 000000
2014-01-25 00:50:07,0.07,2.10,0.00,19.24,25.10,28.50,6.03,30.63,1012.69,2047.99,2763.49,2761.00,2990.96,349.52,326.83,15.31,0000 0000 0000 0000 000000
2014-01-25 00:51:07,0.11,2.10,0.00,19.24,25.10,28.52,6.05,30.54,1012.71,2047.99,2763.18,2760.82,2990.61,349.92,326.79,15.31,0000 0000 0000 0000 000000
2014-01-25 00:52:08,0.18,2.10,0.00,19.24,25.10,28.52,6.29,30.67,1012.71,2047.99,2763.03,2760.37,2990.25,351.00,327.86,15.32,0000 0000 0000 0000 000000
2014-01-25 00:53:08,0.20,2.10,0.00,19.23,25.10,28.49,6.13,30.67,1012.68,2047.98,2762.70,2760.14,2990.09,349.96,326.99,15.33,0000 0000 0000 0000 000000
2014-01-25 00:54:08,0.14,2.10,0.00,19.23,25.10,28.50,6.13,30.58,1012.70,2047.99,2762.30,2760.05,2990.03,350.28,327.16,15.33,0000 0000 0000 0000 000000
2014-01-25 00:55:08,0.11,2.11,0.00,19.23,25.10,28.53,6.12,30.71,1012.70,2047.99,2762.11,2759.98,2989.78,350.05,326.84,15.34,0000 0000 0000 0000 000000
2014-01-25 00:56:08,0.10,2.11,0.00,19.22,25.10,28.54,6.11,30.63,1012.70,2047.99,2761.95,2759.65,2989.33,350.10,326.65,15.34,0000 0000 0000 0000 000000
2014-01-25 00:57:09,0.20,2.11,0.00,19.22,25.10,28.56,6.11,30.50,1012.68,2047.99,2761.52,2759.26,2989.11,350.74,327.57,15.35,0000 0000 0000 0000 000000
2014-01-25 00:58:09,0.20,2.11,0.00,19.23,25.11,28.57,6.05,30.54,1012.70,2047.99,2761.19,2759.09,2989.04,348.83,325.78,15.36,0000 0000 0000 0000 000000
2014-01-25 00:59:09,0.10,2.11,0.00,19.23,25.11,28.55,6.07,30.50,1012.71,2047.99,2761.06,2759.03,2988.93,350.13,327.25,15.36,0000 0000 0000 0000 000000
2014-01-25 01:00:09,0.06,2.11,0.00,19.24,25.11,28.52,6.03,30.38,1012.71,2047.99,2760.87,2758.97,2988.48,349.50,326.88,15.37,0000 0000 0000 0000 000000
2014-01-25 01:01:10,0.14,2.11,0.00,19.25,25.11,28.49,6.02,30.58,1012.70,2047.99,2760.36,2758.52,2988.17,348.95,325.74,15.37,0000 0000 0000 0000 000000
2014-01-25 01:02:10,0.26,2.11,0.00,19.24,25.11,28.51,6.09,30.63,1012.71,2047.99,2760.13,2758.19,2988.05,351.11,328.11,15.38,0000 0000 0000 0000 000000
2014-01-25 01:03:10,0.13,2.11,0.00,19.23,25.12,28.56,6.07,30.42,1012.71,2047.99,2760.04,2758.06,2987.99,350.08,326.95,15.38,0000 0000 0000 0000 000000
2014-01-25 01:04:10,0.06,2.11,0.00,19.24,25.12,28.57,6.08,30.33,1012.69,2047.99,2759.67,2758.01,2987.71,350.49,327.32,15.39,0000 0000 0000 0000 000000
2014-01-25 01:05:11,0.13,2.11,0.00,19.24,25.12,28.57,5.95,30.46,1012.64,2047.99,2759.25,2757.90,2987.29,348.61,325.55,15.40,0000 0000 0000 0000 000000
2014-01-25 01:06:11,0.17,2.11,0.00,19.25,25.12,28.56,6.14,30.42,1012.66,2047.98,2759.08,2757.44,2987.11,350.86,327.64,15.40,0000 0000 0000 0000 000000
2014-01-25 01:07:11,0.18,2.12,0.00,19.25,25.12,28.59,6.12,30.38,1012.69,2047.99,2758.89,2757.17,2987.04,348.92,325.85,15.41,0000 0000 0000 0000 000000
2014-01-25 01:08:11,0.12,2.12,0.00,19.24,25.12,28.52,6.13,30.38,1012.69,2047.98,2758.40,2757.06,2986.88,350.10,326.96,15.41,0000 0000 0000 0000 000000
2014-01-25 01:09:12,0.14,2.12,0.00,19.24,25.12,28.50,6.03,30.42,1012.66,2047.98,2758.15,2757.02,2986.54,349.74,326.61,15.42,0000 0000 0000 0000 000000
2014-01-25 01:10:12,0.11,2.12,0.00,19.24,25.12,28.50,6.17,30.54,1012.64,2047.99,2758.04,2756.98,2986.23,350.43,327.26,15.43,0000 0000 0000 0000 000000
2014-01-25 01:11:12,0.10,2.12,0.00,19.24,25.12,28.49,6.12,30.54,1012.67,2047.98,2757.69,2756.55,2986.08,349.79,326.66,15.43,0000 0000 0000 0000 000000
2014-01-25 01:12:13,0.19,2.12,0.00,19.24,25.12,28.54,6.15,30.63,1012.69,2047.99,2757.27,2756.21,2986.02,349.73,326.56,15.44,0000 0000 0000 0000 000000
2014-01-25 01:13:13,0.18,2.12,0.00,19.24,25.12,28.53,6.03,30.42,1012.69,2047.99,2757.09,2756.08,2985.77,349.00,326.39,15.44,0000 0000 0000 0000 000000
2014-01-25 01:14:13,0.10,2.12,0.00,19.24,25.12,28.49,6.06,30.38,1012.67,2047.99,2756.87,2756.01,2985.32,350.06,326.91,15.45,0000 0000 0000 0000 000000
2014-01-25 01:15:13,0.13,2.12,0.00,19.24,25.12,28.51,6.07,30.38,1012.68,2047.99,2756.39,2755.87,2985.11,350.00,326.86,15.46,0000 0000 0000 0000 000000
2014-01-25 01:16:14,0.15,2.12,0.00,19.24,25.12,28.49,6.17,30.46,1012.67,2047.99,2756.14,2755.49,2985.04,350.61,327.42,15.46,0000 0000 0000 0000 000000
2014-01-25 01:17:14,0.16,2.12,0.00,19.24,25.12,28.51,6.10,30.46,1012.65,2047.98,2756.03,2755.20,2984.95,350.17,327.01,15.47,0000 0000 0000 0000 000000
2014-01-25 01:18:14,0.12,2.12,0.00,19.24,25.12,28.51,6.04,30.25,1012.66,2047.98,2755.66,2755.07,2984.50,349.59,326.83,15.47,0000 0000 0000 0000 000000
2014-01-25 01:19:14,0.15,2.13,0.00,19.24,25.12,28.53,6.16,30.50,1012.69,2047.99,2755.26,2755.02,2984.18,350.30,327.31,15.48,0000 0000 0000 0000 000000
2014-01-25 01:20:15,0.14,2.13,0.00,19.23,25.12,28.48,6.04,30.54,1012.70,2047.98,2755.09,2754.86,2984.07,349.71,326.83,15.48,0000 0000 0000 0000 000000
2014-01-25 01:21:15,0.07,2.13,0.00,19.24,25.12,28.49,6.07,30.42,1012.70,2047.99,2754.96,2754.48,2984.00,350.10,327.13,15.49,0000 0000 0000 0000 000000
2014-01-25 01:22:15,0.16,2.13,0.00,19.24,25.12,28.53,6.00,30.42,1012.70,2047.99,2754.49,2754.20,2983.79,349.13,326.05,15.50,0000 0000 0000 0000 000000
2014-01-25 01:23:15,0.19,2.13,0.00,19.24,25.12,28.53,6.10,30.50,1012.68,2047.98,2754.18,2754.07,2983.34,349.65,326.53,15.50,0000 0000 0000 0000 000000
2014-01-25 01:24:16,0.15,2.13,0.00,19.24,25.12,28.53,6.28,30.58,1012.67,2047.98,2754.04,2753.97,2983.12,351.48,328.24,15.51,0000 0000 0000 0000 000000
2014-01-25 01:25:16,0.08,2.13,0.00,19.24,25.12,28.56,6.18,30.42,1012.65,2047.96,2753.74,2753.78,2983.03,349.72,326.59,15.51,0000 0000 0000 0000 000000
2014-01-25 01:26:16,0.13,2.13,0.00,19.24,25.12,28.56,6.18,30.54,1012.62,2047.98,2753.30,2753.37,2982.82,350.54,327.34,15.52,0000 0000 0000 0000 000000
2014-01-25 01:27:17,0.23,2.13,0.00,19.24,25.12,28.49,6.16,30.50,1012.62,2047.99,2753.11,2753.14,2982.37,349.80,326.66,15.53,0000 0000 0000 0000 000000
2014-01-25 01:28:17,0.15,2.13,0.00,19.24,25.12,28.50,6.18,30.54,1012.64,2047.98,2752.93,2753.04,2982.13,350.49,327.30,15.53,0000 0000 0000 0000 000000
2014-01-25 01:29:17,0.09,2.13,0.00,19.24,25.12,28.52,6.18,30.50,1012.65,2047.98,2752.50,2752.99,2982.04,349.34,326.23,15.54,0000 0000 0000 0000 000000
2014-01-25 01:30:17,0.12,2.13,0.00,19.25,25.12,28.53,6.08,30.33,1012.65,2047.97,2752.20,2752.66,2981.88,350.34,326.87,15.54,0000 0000 0000 0000 000000
2014-01-25 01:31:18,0.17,2.14,0.00,19.24,25.12,28.53,6.08,30.54,1012.68,2047.98,2752.07,2752.31,2981.47,350.24,327.10,15.55,0000 0000 0000 0000 000000
2014-01-25 01:32:18,0.17,2.14,0.00,19.24,25.12,28.54,6.07,30.50,1012.68,2047.97,2751.97,2752.11,2981.17,349.42,326.15,15.55,0000 0000 0000 0000 000000
2014-01-25 01:33:19,0.11,2.14,0.00,19.24,25.12,28.51,6.01,30.38,1012.67,2047.98,2751.63,2752.04,2981.06,349.40,326.30,15.56,0000 0000 0000 0000 000000
2014-01-25 01:34:19,0.10,2.14,0.00,19.24,25.12,28.49,6.13,30.46,1012.68,2047.99,2751.26,2752.00,2981.00,349.82,326.44,15.57,0000 0000 0000 0000 000000
2014-01-25 01:35:19,0.09,2.14,0.00,19.23,25.12,28.49,6.13,30.63,1012.66,2047.98,2751.09,2751.84,2980.71,350.50,326.81,15.57,0000 0000 0000 0000 000000
2014-01-25 01:36:19,0.12,2.14,0.00,19.24,25.12,28.48,5.94,30.46,1012.66,2047.96,2751.00,2751.47,2980.31,349.63,326.39,15.58,0000 0000 0000 0000 000000
2014-01-25 01:37:20,0.18,2.14,0.00,19.23,25.13,28.47,6.18,30.33,1012.68,2047.97,2750.60,2751.18,2980.12,350.56,326.93,15.58,0000 0000 0000 0000 000000
2014-01-25 01:38:20,0.17,2.14,0.00,19.23,25.13,28.45,6.17,30.38,1012.67,2047.97,2750.23,2751.06,2980.04,350.45,327.37,15.59,0000 0000 0000 0000 000000
2014-01-25 01:39:20,0.11,2.14,0.00,19.24,25.13,28.49,6.18,30.38,1012.69,2047.98,2750.07,2751.02,2979.95,349.77,326.65,15.60,0000 0000 0000 0000 000000
2014-01-25 01:40:20,0.06,2.14,0.00,19.26,25.13,28.47,5.95,30.33,1012.69,2047.97,2749.89,2750.96,2979.56,349.61,326.48,15.60,0000 0000 0000 0000 000000
2014-01-25 01:41:21,0.13,2.14,0.00,19.26,25.13,28.49,6.05,30.33,1012.69,2047.97,2749.40,2750.65,2979.21,349.50,326.38,15.61,0000 0000 0000 0000 000000
2014-01-25 01:42:21,0.21,2.14,0.00,19.26,25.14,28.50,6.23,30.38,1012.69,2047.96,2749.14,2750.31,2979.07,349.79,326.65,15.61,0000 0000 0000 0000 000000
2014-01-25 01:43:21,0.14,2.15,0.00,19.26,25.14,28.53,6.13,30.38,1012.67,2047.96,2749.04,2750.11,2979.00,350.54,327.34,15.62,0000 0000 0000 0000 000000
2014-01-25 01:44:22,0.08,2.15,0.00,19.25,25.14,28.56,6.02,30.42,1012.69,2047.97,2748.76,2750.04,2978.82,349.20,326.13,15.63,0000 0000 0000 0000 000000
2014-01-25 01:45:22,0.08,2.15,0.00,19.24,25.14,28.55,6.18,30.54,1012.69,2047.94,2748.31,2749.96,2978.36,350.24,326.92,15.63,0000 0000 0000 0000 000000
2014-01-25 01:46:22,0.17,2.15,0.00,19.24,25.14,28.56,5.88,30.63,1012.69,2047.94,2748.11,2749.57,2978.13,348.94,325.87,15.64,0000 0000 0000 0000 000000
2014-01-25 01:47:22,0.17,2.15,0.00,19.24,25.14,28.54,6.12,30.75,1012.66,2047.89,2747.88,2749.24,2978.03,349.98,326.83,15.64,0000 0000 0000 0000 000000
2014-01-25 01:48:23,0.12,2.15,0.00,19.24,25.15,28.52,6.17,30.50,1012.61,2047.92,2747.40,2749.08,2977.92,349.86,326.70,15.65,0000 0000 0000 0000 000000
2014-01-25 01:49:23,0.15,2.15,0.00,19.26,25.15,28.55,6.09,30.54,1012.64,2047.96,2747.14,2749.03,2977.55,349.52,326.27,15.65,0000 0000 0000 0000 000000
2014-01-25 01:50:23,0.15,2.15,0.00,19.27,25.15,28.56,6.05,30.50,1012.62,2047.96,2747.05,2749.00,2977.24,349.12,326.27,15.66,0000 0000 0000 0000 000000
2014-01-25 01:51:24,0.07,2.15,0.00,19.27,25.15,28.55,6.02,30.54,1012.61,2047.94,2746.90,2748.87,2977.08,349.44,326.28,15.67,0000 0000 0000 0000 000000
2014-01-25 01:52:24,0.10,2.15,0.00,19.27,25.15,28.55,6.27,30.67,1012.62,2047.97,2746.43,2748.41,2977.03,350.30,326.29,15.67,0000 0000 0000 0000 000000
2014-01-25 01:53:24,0.21,2.15,0.00,19.27,25.15,28.58,6.14,30.54,1012.59,2047.97,2746.16,2748.16,2977.00,350.14,326.94,15.68,0000 0000 0000 0000 000000
2014-01-25 01:54:24,0.12,2.15,0.00,19.26,25.15,28.59,6.04,30.50,1012.65,2047.96,2746.04,2748.05,2976.70,349.81,326.74,15.68,0000 0000 0000 0000 000000
2014-01-25 01:55:25,0.09,2.15,0.00,19.25,25.15,28.58,6.17,30.54,1012.61,2047.98,2745.72,2748.00,2976.27,350.21,326.46,15.69,0000 0000 0000 0000 000000
2014-01-25 01:56:25,0.15,2.16,0.00,19.26,25.15,28.60,6.18,30.42,1012.67,2047.99,2745.30,2747.87,2976.10,349.75,326.60,15.70,0000 0000 0000 0000 000000
2014-01-25 01:57:25,0.15,2.16,0.00,19.26,25.15,28.61,6.22,30.46,1012.61,2047.98,2745.11,2747.44,2976.03,350.69,327.46,15.70,0000 0000 0000 0000 000000
2014-01-25 01:58:26,0.13,2.16,0.00,19.27,25.15,28.60,6.26,30.42,1012.65,2047.99,2745.03,2747.17,2975.97,349.88,326.70,15.71,0000 0000 0000 0000 000000
2014-01-25 01:59:26,0.12,2.16,0.00,19.27,25.15,28.61,6.23,30.54,1012.64,2047.97,2744.74,2747.06,2975.52,350.41,327.20,15.71,0000 0000 0000 0000 000000
2014-01-25 02:00:26,0.15,2.16,0.00,19.26,25.15,28.62,6.18,30.38,1012.57,2047.98,2744.28,2747.01,2975.22,350.21,327.00,15.72,0000 0000 0000 0000 000000
2014-01-25 02:01:26,0.13,2.16,0.00,19.26,25.15,28.55,6.15,30.42,1012.48,2047.98,2744.10,2746.82,2975.08,350.13,326.90,15.72,0000 0000 0000 0000 000000
2014-01-25 02:02:26,0.11,2.16,0.00,19.27,25.15,28.57,5.91,30.29,1012.36,2047.93,2743.95,2746.37,2974.93,349.28,326.06,15.73,0000 0000 0000 0000 000000
2014-01-25 02:03:27,0.16,2.16,0.00,19.26,25.15,28.57,6.12,30.42,1012.40,2047.92,2743.53,2746.13,2974.54,350.12,326.69,15.74,0000 0000 0000 0000 000000
2014-01-25 02:04:27,0.18,2.16,0.00,19.27,25.15,28.57,5.99,30.38,1012.36,2047.91,2743.20,2746.04,2974.20,349.60,326.36,15.74,0000 0000 0000 0000 000000
2014-01-25 02:05:27,0.11,2.16,0.00,19.27,25.15,28.56,6.14,30.46,1012.41,2047.91,2743.07,2745.99,2974.07,350.10,326.85,15.75,0000 0000 0000 0000 000000
2014-01-25 02:06:27,0.07,2.16,0.00,19.27,25.15,28.55,6.09,30.50,1012.52,2047.91,2742.89,2745.70,2974.02,349.76,326.56,15.75,0000 0000 0000 0000 000000
2014-01-25 02:07:28,0.16,2.17,0.00,19.26,25.15,28.52,6.13,30.38,1012.54,2047.96,2742.43,2745.30,2973.84,350.14,326.93,15.76,0000 0000 0000 0000 000000
2014-01-25 02:08:28,0.23,2.17,0.00,19.27,25.15,28.58,6.23,30.42,1012.53,2047.96,2742.16,2745.11,2973.42,349.40,326.23,15.77,0000 0000 0000 0000 000000
2014-01-25 02:09:28,0.16,2.17,0.00,19.28,25.15,28.60,6.15,30.21,1012.61,2047.96,2742.05,2745.04,2973.16,350.13,326.37,15.77,0000 0000 0000 0000 000000
2014-01-25 02:10:28,0.08,2.17,0.00,19.28,25.15,28.59,6.07,30.33,1012.64,2047.97,2741.90,2745.00,2973.05,350.18,326.97,15.78,0000 0000 0000 0000 000000
2014-01-25 02:11:29,0.07,2.17,0.00,19.27,25.15,28.61,6.18,30.29,1012.62,2047.96,2741.48,2744.97,2973.00,350.52,327.29,15.78,0000 0000 0000 0000 000000
2014-01-25 02:12:29,0.10,2.17,0.00,19.27,25.15,28.60,6.07,30.25,1012.61,2047.95,2741.18,2744.63,2972.68,350.03,326.83,15.79,0000 0000 0000 0000 000000
2014-01-25 02:13:29,0.19,2.17,0.00,19.26,25.15,28.54,6.03,30.08,1012.58,2047.95,2741.05,2744.26,2972.27,349.17,326.07,15.80,0000 0000 0000 0000 000000
2014-01-25 02:14:29,0.18,2.17,0.00,19.25,25.15,28.54,6.14,30.25,1012.54,2047.96,2740.88,2744.09,2972.10,349.69,326.52,15.80,0000 0000 0000 0000 000000
2014-01-25 02:15:30,0.11,2.17,0.00,19.25,25.15,28.51,5.98,30.25,1012.47,2047.95,2740.43,2744.03,2972.03,349.91,327.29,15.81,0000 0000 0000 0000 000000
2014-01-25 02:16:30,0.07,2.17,0.00,19.25,25.15,28.50,6.08,30.33,1012.46,2047.88,2740.15,2743.94,2971.93,350.70,327.43,15.81,0000 0000 0000 0000 000000
2014-01-25 02:17:30,0.07,2.17,0.00,19.25,25.15,28.54,6.05,30.29,1012.40,2047.86,2740.05,2743.54,2971.52,350.07,326.83,15.82,0000 0000 0000 0000 000000
2014-01-25 02:18:31,0.15,2.17,0.00,19.25,25.15,28.56,6.15,30.13,1012.34,2047.87,2739.92,2743.22,2971.23,350.06,326.80,15.82,0000 0000 0000 0000 000000
2014-01-25 02:19:31,0.16,2.17,0.00,19.25,25.15,28.53,6.06,30.17,1012.32,2047.86,2739.45,2743.08,2971.08,349.13,325.93,15.83,0000 0000 0000 0000 000000
2014-01-25 02:20:31,0.13,2.17,0.00,19.24,25.15,28.58,6.00,30.33,1012.34,2047.86,2739.17,2743.03,2971.02,349.81,326.57,15.84,0000 0000 0000 0000 000000
2014-01-25 02:21:31,0.07,2.18,0.00,19.24,25.15,28.60,6.08,30.42,1012.29,2047.87,2739.05,2742.95,2970.89,350.09,326.82,15.84,0000 0000 0000 0000 000000
2014-01-25 02:22:32,0.09,2.18,0.00,19.25,25.15,28.61,6.09,30.38,1012.28,2047.88,2738.97,2742.68,2970.44,349.21,326.15,15.85,0000 0000 0000 0000 000000
2014-01-25 02:23:32,0.17,2.18,0.00,19.25,25.15,28.58,6.13,30.29,1012.24,2047.89,2738.63,2742.31,2970.18,350.32,326.78,15.85,0000 0000 0000 0000 000000
2014-01-25 02:24:32,0.19,2.18,0.00,19.24,25.15,28.55,6.18,30.46,1012.25,2047.92,2738.26,2742.13,2970.07,350.45,327.14,15.86,0000 0000 0000 0000 000000
2014-01-25 02:25:33,0.16,2.18,0.00,19.25,25.15,28.61,6.00,30.38,1012.27,2047.94,2738.08,2742.05,2970.01,350.20,327.26,15.87,0000 0000 0000 0000 000000
2014-01-25 02:26:33,0.06,2.18,0.00,19.26,25.15,28.59,6.07,30.33,1012.25,2047.89,2738.01,2742.01,2969.97,350.49,327.10,15.87,0000 0000 0000 0000 000000
2014-01-25 02:27:33,0.01,2.18,0.00,19.25,25.15,28.61,6.15,30.54,1012.26,2047.86,2737.61,2741.97,2969.73,350.58,327.26,15.88,0000 0000 0000 0000 000000
2014-01-25 02:28:33,0.13,2.18,0.00,19.25,25.15,28.52,6.07,30.42,1012.24,2047.92,2737.26,2741.85,2969.35,349.44,326.19,15.88,0000 0000 0000 0000 000000
2014-01-25 02:29:34,0.19,2.18,0.00,19.24,25.15,28.53,5.99,30.50,1012.24,2047.88,2737.10,2741.48,2969.13,349.24,326.08,15.89,0000 0000 0000 0000 000000
2014-01-25 02:30:34,0.11,2.18,0.00,19.24,25.15,28.56,6.20,30.63,1012.24,2047.82,2737.03,2741.18,2969.05,350.28,326.81,15.89,0000 0000 0000 0000 000000
2014-01-25 02:31:34,0.06,2.18,0.00,19.24,25.16,28.57,6.16,30.58,1012.26,2047.82,2736.75,2741.06,2968.97,350.04,326.76,15.90,0000 0000 0000 0000 000000
2014-01-25 02:32:34,0.10,2.18,0.00,19.24,25.15,28.64,6.11,30.83,1012.23,2047.73,2736.29,2740.99,2968.59,350.26,326.89,15.91,0000 0000 0000 0000 000000
2014-01-25 02:33:35,0.13,2.18,0.00,19.25,25.16,28.61,6.07,30.71,1012.22,2047.75,2736.10,2740.87,2968.23,350.08,326.78,15.91,0000 0000 0000 0000 000000
2014-01-25 02:34:35,0.12,2.19,0.00,19.26,25.16,28.59,6.14,30.63,1012.23,2047.84,2736.01,2740.60,2968.10,350.64,327.30,15.92,0000 0000 0000 0000 000000
2014-01-25 02:35:35,0.18,2.19,0.00,19.25,25.16,28.57,5.97,30.54,1012.23,2047.87,2735.84,2740.23,2968.03,348.76,325.54,15.92,0000 0000 0000 0000 000000
2014-01-25 02:36:36,0.16,2.19,0.00,19.25,25.16,28.56,6.23,30.63,1012.22,2047.88,2735.47,2740.08,2968.00,351.19,327.81,15.93,0000 0000 0000 0000 000000